Tracking 18844 objects as of 21-Nov-2017
HD Live streaming from Space Station
objects crossing your sky now

COSMOS 1974

Track COSMOS 1974 now!
COSMOS 1974 is classified as:


NORAD ID: 19554
Int'l Code: 1988-092A
Perigee: 5,859.5 km
Apogee: 34,547.0 km
Inclination: 69.8 °
Period: 718.5 minutes
Semi major axis: 26574 km
RCS: 16.1296 m2 (large)
Launch date: October 3, 1988
Source: Commonwealth of Independent States (former USSR) (CIS)
Launch site: PLESETSK MISSILE AND SPACE COMPLEX (PKMTR)
aabbcc
Your satellite tracking list
Your tracking list is empty




NASA's NSSDC Master Catalog

Two Line Element Set (TLE):
1 19554U 88092A   17325.46310847 -.00000547  00000-0  00000+0 0  9998
2 19554  69.7757 309.1291 5397627 145.1209  28.3287  2.00406257213409
Source of the keplerian elements: AFSPC